Flag for Moldova Weather past 2 weeks in Bălți, Moldova

Now
70 °F

Mild.


Feels Like: 70 °F
Forecast: 56 / 83 °F
Wind: 5 mph from North

Location: Baltsi-Leadoveni - The North of Moldova

Current Time: Aug 1, 2015 at 9:28:48 PM

Latest Report: Aug 1, 2015 at 9:00 PM


Visibility: N/A

Pressure: 30.15 "Hg

Humidity: 46%

Dew point: 48 °F

Location of BălțiLocation

Historic Weather in Bălți — Graph

°F

Bălți temperature yesterday

Maximum temperature yesterday: 73 °F (at 1:00 PM)
Minimum temperature yesterday: 61 °F (at 9:00 PM)
Average temperature yesterday: 67 °F

Past Weeks' High & Low Weather Summary

 TemperatureHumidityPressure
High95 °F (Jul 24, 5:30 PM)100% (Jul 30, 11:00 PM)30.15 "Hg (Jul 30, 11:00 PM)
Low55 °F (Aug 1, 5:00 AM)26% (Jul 26, 11:00 AM)29.65 "Hg (Jul 26, 4:30 PM)
Average77 °F53%29.91 "Hg
* Reported Jul 17 8:00 PM — Aug 1 8:00 PM, Bălți, Weather by CustomWeather, © 2015

Note: Actual official high and low records may vary slightly from our data, if they occured in-between our weather recording intervals... More about our weather records

Advertising

Bălți weather history for previous 24 hours

 ConditionsComfort  
Time TempWeatherWind HumidityBarometerVisibility
8:00 PM
Sat, Aug 1
73 °FMild.2 mph41%30.15 "HgN/A
7:30 PM75 °FMild.No wind39%30.12 "HgN/A
7:00 PM77 °FPleasantly warm.3 mph36%30.12 "HgN/A
6:30 PM77 °FPleasantly warm.5 mph36%30.12 "HgN/A
6:00 PM77 °FPleasantly warm.6 mph36%30.12 "HgN/A
5:30 PM77 °FPassing clouds.3 mph36%30.12 "HgN/A
5:00 PM77 °FPassing clouds.7 mph36%30.15 "HgN/A
4:00 PM77 °FPassing clouds.6 mph34%30.15 "HgN/A
3:30 PM77 °FPassing clouds.7 mph34%30.15 "HgN/A
3:00 PM77 °FPassing clouds.5 mph36%30.15 "HgN/A
2:30 PM77 °FPassing clouds.6 mph39%30.15 "HgN/A
2:00 PM77 °FPassing clouds.7 mph36%30.15 "HgN/A
1:00 PM75 °FScattered clouds.9 mph39%30.15 "HgN/A
12:00 PM73 °FPassing clouds.7 mph47%30.15 "HgN/A
11:00 AM70 °FPassing clouds.6 mph53%30.15 "HgN/A
10:00 AM70 °FPassing clouds.7 mph57%30.15 "HgN/A
9:30 AM68 °FPassing clouds.5 mph64%30.15 "HgN/A
9:00 AM64 °FPassing clouds.6 mph73%30.15 "HgN/A
8:00 AM61 °FCool.6 mph77%30.12 "HgN/A
7:00 AM57 °FCool.8 mph88%30.12 "HgN/A
6:30 AM57 °FCool.9 mph88%30.09 "HgN/A
6:00 AM55 °FCool.9 mph94%30.09 "HgN/A
5:00 AM55 °FCool.10 mph94%30.09 "HgN/A
4:30 AM57 °FCool.12 mph94%30.07 "HgN/A
4:00 AM59 °FCool.12 mph88%30.07 "HgN/A
3:30 AM59 °FCool.10 mph94%30.07 "HgN/A
3:00 AM59 °FCool.10 mph88%30.07 "HgN/A
2:30 AM59 °FCool.12 mph94%30.07 "HgN/A
2:00 AM59 °FCool.10 mph94%30.07 "HgN/A
1:30 AM59 °FCool.9 mph94%30.04 "HgN/A
1:00 AM59 °FCool.12 mph94%30.04 "HgN/A
12:00 AM59 °FCool.13 mph88%30.04 "HgN/A
11:30 PM
Fri, Jul 31
61 °FCool.10 mph88%30.04 "HgN/A
11:00 PM61 °FCool.10 mph88%30.01 "HgN/A
10:00 PM61 °FCool.15 mph94%30.01 "HgN/A
9:30 PM61 °FCool.16 mph94%30.01 "HgN/A
9:00 PM61 °FCool.16 mph94%29.98 "Hg5 mi
Weather by CustomWeather, © 2015

See weather overviewHow to use our weather pages